Home   Weather   Cranbrook   Past weeks

Flag for Canada Past Weather in Cranbrook, British Columbia, Canada — Yesterday and Last 2 Weeks

Now
28 °F

Snow flurries. Cloudy.


Feels Like: 20 °F
Forecast: 13 / 24 °F
Wind: 9 mph from North

Location: Cranbrook

Current Time: Dec 4, 2016 at 5:35:14 pm

Latest Report: Dec 4, 2016 at 5:00 pm


Visibility: 5 mi

Pressure: 29.72 "Hg (26.42 "Hg at 933m altitude)

Humidity: 80%

Dew Point: 23 °F

Location of CranbrookLocation

Past Weather in Cranbrook — Graph

°F

Cranbrook Temperature Yesterday

Maximum temperature yesterday: 41 °F (at 3:00 pm)
Minimum temperature yesterday: 23 °F (at 4:00 am)
Average temperature yesterday: 30 °F

High & Low Weather Summary for the Past Weeks

 TemperatureHumidityPressure
High45 °F (Nov 21, 1:00 pm)100% (Nov 19, 4:00 pm)30.35 "Hg (Nov 19, 4:00 pm)
Low19 °F (Nov 29, 7:00 am)49% (Dec 3, 3:00 pm)29.49 "Hg (Nov 28, 12:00 am)
Average32 °F87%29.97 "Hg
* Reported Nov 19 4:00 pm — Dec 4 4:00 pm, Cranbrook, Weather by CustomWeather, © 2016

Note: Actual official high and low records may vary slightly from our data, if they occured in-between our weather recording intervals... More about our weather records

Advertising

Cranbrook Weather History for the Previous 24 Hours

Scroll right to see more
 ConditionsComfort  
Time TempWeatherWind HumidityBarometerVisibility
4:00 pm
Sun, Dec 4
28 °FSnow flurries. Mostly cloudy.12 mph93%29.70 "Hg1 mi
3:00 pm30 °FSnow flurries. Partly sunny.10 mph93%29.66 "Hg1 mi
2:00 pm34 °FSnow flurries. Partly sunny.3 mph70%29.63 "Hg15 mi
1:00 pm36 °FScattered showers. Broken clouds.6 mph75%29.62 "Hg20 mi
12:00 pm36 °FScattered clouds.6 mph65%29.63 "Hg20 mi
11:00 am34 °FScattered clouds.2 mph87%29.65 "Hg20 mi
10:00 am32 °FScattered showers. Partly sunny.2 mph93%29.68 "Hg5 mi
9:00 am30 °FLight mixture of precip. Passing clouds.2 mph86%29.68 "Hg10 mi
8:00 am30 °FLight snow. Passing clouds.8 mph100%29.69 "Hg5 mi
7:00 am32 °FLight snow. Mostly cloudy.7 mph93%29.70 "Hg3 mi
6:00 am32 °FLight snow. Mostly cloudy.7 mph93%29.71 "Hg1 mi
5:00 am32 °FLight snow. Partly cloudy.8 mph87%29.74 "Hg15 mi
4:00 am32 °FScattered showers. Mostly cloudy.8 mph93%29.77 "Hg15 mi
3:00 am32 °FMostly cloudy.12 mph87%29.79 "Hg25 mi
2:00 am32 °FMostly cloudy.7 mph87%29.83 "Hg25 mi
1:00 am32 °FOvercast.7 mph87%29.87 "Hg25 mi
12:00 am32 °FOvercast.8 mph87%29.91 "Hg25 mi
11:00 pm
Sat, Dec 3
32 °FPartly cloudy.10 mph80%29.94 "Hg25 mi
10:00 pm28 °FPartly cloudy.3 mph86%29.97 "Hg25 mi
9:00 pm32 °FPartly cloudy.6 mph75%29.99 "Hg25 mi
8:00 pm28 °FMostly cloudy.No wind80%30.02 "Hg25 mi
7:00 pm32 °FPartly cloudy.No wind69%30.01 "Hg25 mi
6:00 pm30 °FPassing clouds.No wind69%30.03 "Hg25 mi
5:00 pm32 °FBroken clouds.6 mph69%30.03 "Hg25 mi
Weather by CustomWeather, © 2016

See weather overviewHow to use our weather pages